This is the latest recevied weather packets stored in our database for station/object HB9CJD-1. If no packets are shown the sender has not sent any weather packets the latest 10 day(s).
| Time | Temp. | Humidity | Pressure | Rain* | Wind** | Luminosity | Snow |
|---|---|---|---|---|---|---|---|
| 1777119231 | 22.22° C | 27% | 1019 hPa | - | - | - | - |
| 1777118628 | 22.22° C | 26% | 1019 hPa | - | - | - | - |
| 1777118628 | 22.22° C | 26% | 1019 hPa | - | - | - | - |
| 1777118025 | 21.67° C | 27% | 1019.2 hPa | - | - | - | - |
| 1777118025 | 21.67° C | 27% | 1019.2 hPa | - | - | - | - |
| 1777117422 | 21.67° C | 29% | 1019.3 hPa | - | - | - | - |
| 1777117422 | 21.67° C | 29% | 1019.3 hPa | - | - | - | - |
| 1777116819 | 21.67° C | 29% | 1019.4 hPa | - | - | - | - |
| 1777116818 | 21.67° C | 29% | 1019.4 hPa | - | - | - | - |
| 1777116215 | 21.11° C | 29% | 1019.4 hPa | - | - | - | - |
| 1777116215 | 21.11° C | 29% | 1019.4 hPa | - | - | - | - |
| 1777115612 | 21.11° C | 33% | 1019.5 hPa | - | - | - | - |
| 1777115612 | 21.11° C | 33% | 1019.5 hPa | - | - | - | - |
| 1777115009 | 21.11° C | 32% | 1019.6 hPa | - | - | - | - |
| 1777115009 | 21.11° C | 32% | 1019.6 hPa | - | - | - | - |
| 1777114405 | 20.56° C | 31% | 1019.7 hPa | - | - | - | - |
| 1777114405 | 20.56° C | 31% | 1019.7 hPa | - | - | - | - |
| 1777113803 | 20.56° C | 34% | 1019.7 hPa | - | - | - | - |
| 1777113802 | 20.56° C | 34% | 1019.7 hPa | - | - | - | - |
| 1777113199 | 20° C | 36% | 1019.8 hPa | - | - | - | - |
| 1777113199 | 20° C | 36% | 1019.8 hPa | - | - | - | - |
| 1777112596 | 18.89° C | 39% | 1019.9 hPa | - | - | - | - |
| 1777112596 | 18.89° C | 39% | 1019.9 hPa | - | - | - | - |
| 1777111993 | 18.89° C | 37% | 1019.9 hPa | - | - | - | - |
| 1777111992 | 18.89° C | 37% | 1019.9 hPa | - | - | - | - |
* Rain since midnight (hover to see other rain measurements)
** Current wind speed in m/s (hover to see current wind gust speed)